OE3KJN-13 Weather Reports


time (UTC)temp
C
wind
direction
speed
KPH
gust
KPH
rain 1hr
cm
rain 24hr
cm
rain mn
cm
humidity
%
barometer
mb
20260905224149 20 25 1.6 20.9 0.00 0.00 0.00 100
20260905223648 21 23 6.4 16.1 0.00 0.00 0.00 100
20260905223148 21 358 8.0 20.9 0.00 0.00 0.00 100
20260905222648 21 9 8.0 22.5 0.00 0.00 0.00 100
20260905222147 21 4 11.3 22.5 0.00 0.00 0.00 100
20260905221647 21 2 9.7 27.4 0.00 0.00 0.00 100
20260905221147 21 18 9.7 22.5 0.00 0.00 0.00 100
20260905220647 21 22 19.3 22.5 0.00 0.00 0.00 100
20260905220146 21 67 6.4 25.7 0.00 0.00 0.00 100
20260905215646 21 354 14.5 24.1 0.00 0.00 0.00 100
20260905215146 21 333 12.9 22.5 0.00 0.00 0.00 100
20260905214645 21 9 12.9 24.1 0.00 0.00 0.00 100
20260905214145 21 25 9.7 17.7 0.00 0.00 0.00 100
20260905213645 21 52 4.8 22.5 0.00 0.00 0.00 100
20260905213145 21 343 14.5 20.9 0.00 0.00 0.00 100
20260905212644 22 21 16.1 29.0 0.00 0.00 0.00 100
20260905212144 22 8 6.4 19.3 0.00 0.00 0.00 100
20260905211644 21 358 9.7 19.3 0.00 0.00 0.00 100
20260905211143 21 357 12.9 19.3 0.00 0.00 0.00 100
20260905210643 21 350 11.3 17.7 0.00 0.00 0.00 100
20260905210143 22 352 14.5 16.1 0.00 0.00 0.00 100
20260905205642 21 2 3.2 20.9 0.00 0.00 0.00 100
20260905205142 21 23 11.3 17.7 0.00 0.00 0.00 100
20260905204642 21 22 11.3 17.7 0.00 0.00 0.00 100
20260905204142 21 344 6.4 19.3 0.00 0.00 0.00 100
20260905203641 21 25 9.7 20.9 0.00 0.00 0.00 100
20260905203141 21 351 9.7 17.7 0.00 0.00 0.00 100
20260905202641 21 9 4.8 20.9 0.00 0.00 0.00 100
20260905202140 21 9 11.3 19.3 0.00 0.00 0.00 100
20260905201640 21 15 6.4 14.5 0.00 0.00 0.00 100
20260905201140 22 7 3.2 17.7 0.00 0.00 0.00 100
20260905200640 21 351 4.8 19.3 0.00 0.00 0.00 100
20260905200139 21 1 9.7 17.7 0.00 0.00 0.00 100
20260905195639 21 357 8.0 24.1 0.00 0.00 0.00 100
20260905195139 22 0 17.7 20.9 0.00 0.00 0.00 100
20260905194638 21 50 11.3 12.9 0.00 0.00 0.00 100
20260905194138 21 61 4.8 16.1 0.00 0.00 0.00 100
20260905193638 21 23 3.2 14.5 0.00 0.00 0.00 100
20260905193137 22 30 8.0 11.3 0.00 0.00 0.00 100
20260905192637 21 358 4.8 19.3 0.00 0.00 0.00 100
20260905192137 22 5 8.0 12.9 0.00 0.00 0.00 100
20260905191637 22 336 4.8 14.5 0.00 0.00 0.00 100
20260905191136 22 7 6.4 12.9 0.00 0.00 0.00 100
20260905190636 22 9 8.0 19.3 0.00 0.00 0.00 100
20260905190136 22 12 9.7 11.3 0.00 0.00 0.00 100
20260905185635 22 7 3.2 11.3 0.00 0.00 0.00 100
20260905185135 22 9 6.4 14.5 0.00 0.00 0.00 100
20260905184635 22 28 4.8 8.0 0.00 0.00 0.00 100
20260905184135 22 11 1.6 9.7 0.00 0.00 0.00 100
20260905183634 22 18 1.6 14.5 0.00 0.00 0.00 100
20260905183134 22 358 6.4 17.7 0.00 0.00 0.00 100
20260905182634 21 5 4.8 14.5 0.00 0.00 0.00 100
20260905182133 22 59 6.4 16.1 0.00 0.00 0.00 100
20260905181633 22 16 12.9 17.7 0.00 0.00 0.00 100
20260905181133 22 32 4.8 22.5 0.00 0.00 0.00 100
20260905180633 22 33 9.7 16.1 0.00 0.00 0.00 100
20260905180132 22 36 8.0 19.3 0.00 0.00 0.00 100
20260905175632 22 29 9.7 22.5 0.00 0.00 0.00 100
20260905175132 22 12 9.7 19.3 0.00 0.00 0.00 100
20260905174631 23 334 1.6 27.4 0.00 0.00 0.00 100
20260905174131 22 7 8.0 24.1 0.00 0.00 0.00 100
20260905173631 22 357 16.1 20.9 0.00 0.00 0.00 100
20260905173130 22 9 4.8 27.4 0.00 0.00 0.00 100
20260905172630 23 42 12.9 27.4 0.00 0.00 0.00 100
20260905172130 23 326 27.4 30.6 0.00 0.00 0.00 100
20260905171630 23 16 11.3 32.2 0.00 0.00 0.00 100
20260905171129 23 326 27.4 32.2 0.00 0.00 0.00 100
20260905170629 23 11 16.1 29.0 0.00 0.00 0.00 100
20260905170129 23 340 6.4 29.0 0.00 0.00 0.00 100
20260905165628 23 341 14.5 25.7 0.00 0.00 0.00 100
20260905165128 23 32 11.3 32.2 0.00 0.00 0.00 100
20260905164628 23 357 11.3 29.0 0.00 0.00 0.00 100
20260905164128 23 68 9.7 29.0 0.00 0.00 0.00 100
20260905163627 23 16 25.7 40.2 0.00 0.00 0.00 100
20260905163127 23 338 6.4 27.4 0.00 0.00 0.00 100
20260905162627 24 99 6.4 25.7 0.00 0.00 0.00 100
20260905162126 23 30 4.8 24.1 0.00 0.00 0.00 100
20260905161626 24 21 19.3 32.2 0.00 0.00 0.00 100
20260905161126 24 15 16.1 35.4 0.00 0.00 0.00 100
20260905160626 24 9 16.1 35.4 0.00 0.00 0.00 100
20260905160125 24 358 3.2 29.0 0.00 0.00 0.00 100
20260905155625 24 5 17.7 38.6 0.00 0.00 0.00 100
20260905155125 24 92 9.7 33.8 0.00 0.00 0.00 100
20260905154624 24 133 3.2 33.8 0.00 0.00 0.00 100
20260905154124 25 23 6.4 25.7 0.00 0.00 0.00 100
20260905153624 24 35 14.5 40.2 0.00 0.00 0.00 100
20260905153123 25 7 32.2 41.8 0.00 0.00 0.00 100
20260905152623 25 101 9.7 27.4 0.00 0.00 0.00 100
20260905152123 25 11 16.1 22.5 0.00 0.00 0.00 100
20260905151623 25 28 1.6 20.9 0.00 0.00 0.00 100
20260905151122 25 333 1.6 22.5 0.00 0.00 0.00 100
20260905150622 25 15 3.2 20.9 0.00 0.00 0.00 100
20260905150122 25 73 6.4 25.7 0.00 0.00 0.00 100
20260905145621 25 26 19.3 22.5 0.00 0.00 0.00 100
20260905145121 26 88 4.8 24.1 0.00 0.00 0.00 100
20260905144621 26 50 3.2 33.8 0.00 0.00 0.00 100
20260905144121 26 45 17.7 25.7 0.00 0.00 0.00 100
20260905143620 25 64 8.0 22.5 0.00 0.00 0.00 100
20260905143120 26 355 17.7 30.6 0.00 0.00 0.00 100
20260905142620 25 351 11.3 30.6 0.00 0.00 0.00 100
20260905142119 25 35 11.3 30.6 0.00 0.00 0.00 100
20260905141619 25 45 3.2 24.1 0.00 0.00 0.00 100
20260905141119 25 12 4.8 17.7 0.00 0.00 0.00 100
20260905140618 25 309 8.0 30.6 0.00 0.00 0.00 100
20260905140118 25 49 12.9 25.7 0.00 0.00 0.00 100
20260905135618 25 28 16.1 27.4 0.00 0.00 0.00 100
20260905135118 25 18 19.3 29.0 0.00 0.00 0.00 100
20260905134617 25 348 9.7 32.2 0.00 0.00 0.00 100
20260905134117 25 340 6.4 27.4 0.00 0.00 0.00 100
20260905133617 25 2 4.8 25.7 0.00 0.00 0.00 100
20260905133116 25 22 25.7 30.6 0.00 0.00 0.00 100
20260905132616 25 60 8.0 29.0 0.00 0.00 0.00 100
20260905132116 25 12 25.7 33.8 0.00 0.00 0.00 100
20260905131616 26 26 3.2 22.5 0.00 0.00 0.00 100
20260905131115 25 358 9.7 29.0 0.00 0.00 0.00 100
20260905130615 25 25 27.4 32.2 0.00 0.00 0.00 100
20260905130115 26 333 11.3 24.1 0.00 0.00 0.00 100
20260905125614 25 74 3.2 35.4 0.00 0.00 0.00 100
20260905125114 26 330 16.1 40.2 0.00 0.00 0.00 100
20260905124614 26 329 16.1 24.1 0.00 0.00 0.00 100
20260905124114 26 358 12.9 22.5 0.00 0.00 0.00 100
20260905123613 26 7 16.1 38.6 0.00 0.00 0.00 100
20260905123113 26 18 11.3 19.3 0.00 0.00 0.00 100
20260905122613 25 29 4.8 32.2 0.00 0.00 0.00 100
20260905122112 26 42 12.9 24.1 0.00 0.00 0.00 100
20260905121612 25 350 16.1 35.4 0.00 0.00 0.00 100
20260905121112 25 21 16.1 32.2 0.00 0.00 0.00 100
20260905120611 26 0 25.7 30.6 0.00 0.00 0.00 100
20260905120111 25 358 9.7 35.4 0.00 0.00 0.00 100
20260905115611 26 14 12.9 32.2 0.00 0.00 0.00 100
20260905115111 26 84 14.5 29.0 0.00 0.00 0.00 100
20260905114610 26 32 24.1 25.7 0.00 0.00 0.00 100
20260905114110 26 336 12.9 29.0 0.00 0.00 0.00 100
20260905113610 25 7 8.0 41.8 0.00 0.00 0.00 100
20260905113109 26 14 14.5 37.0 0.00 0.00 0.00 100
20260905112609 25 109 8.0 43.5 0.00 0.00 0.00 100
20260905112109 26 11 20.9 37.0 0.00 0.00 0.00 100
20260905111609 26 2 16.1 24.1 0.00 0.00 0.00 100
20260905111108 26 28 3.2 32.2 0.00 0.00 0.00 100
20260905110608 25 313 17.7 32.2 0.00 0.00 0.00 100
20260905110108 25 18 19.3 30.6 0.00 0.00 0.00 100
20260905105607 25 57 11.3 32.2 0.00 0.00 0.00 100
20260905105107 25 59 14.5 22.5 0.00 0.00 0.00 100
20260905104607 24 11 17.7 19.3 0.00 0.00 0.00 100
20260905104106 23 66 3.2 16.1 0.00 0.00 0.00 100
20260905103606 23 80 0.0 11.3 0.00 0.00 0.00 100
20260905103106 23 68 0.0 4.8 0.00 0.00 0.00 100
20260905102606 24 25 0.0 0.0 0.00 0.00 0.00 100
20260905102105 23 25 0.0 11.3 0.00 0.00 0.00 100
20260905101605 22 16 4.8 8.0 0.00 0.00 0.00 100
20260905101105 22 33 6.4 14.5 0.00 0.00 0.00 100
20260905100604 22 30 4.8 17.7 0.00 0.00 0.00 100
20260905100104 22 4 6.4 12.9 0.00 0.00 0.00 100
20260905095604 21 23 0.0 17.7 0.00 0.00 0.00 100
20260905095104 22 116 4.8 20.9 0.00 0.00 0.00 100
20260905094603 22 118 4.8 12.9 0.00 0.00 0.00 100
20260905094103 22 28 6.4 14.5 0.00 0.00 0.00 100
20260905093603 22 23 6.4 14.5 0.00 0.00 0.00 100
20260905093102 22 40 11.3 11.3 0.00 0.00 0.00 100
20260905092602 21 29 6.4 17.7 0.00 0.00 0.00 100
20260905092102 23 21 0.0 11.3 0.00 0.00 0.00 100
20260905091602 22 331 6.4 19.3 0.00 0.00 0.00 100
20260905091101 23 32 8.0 8.0 0.00 0.00 0.00 100
20260905090601 22 63 1.6 19.3 0.00 0.00 0.00 100
20260905090101 22 337 11.3 24.1 0.00 0.00 0.00 100
20260905085600 23 39 9.7 12.9 0.00 0.00 0.00 100
20260905085100 24 15 3.2 9.7 0.00 0.00 0.00 100
20260905084600 22 57 0.0 11.3 0.00 0.00 0.00 100
20260905084059 24 8 0.0 4.8 0.00 0.00 0.00 100
20260905083559 22 2 0.0 8.0 0.00 0.00 0.00 100
20260905083059 22 347 6.4 12.9 0.00 0.00 0.00 100
20260905082559 22 42 4.8 11.3 0.00 0.00 0.00 100
20260905082058 22 28 9.7 14.5 0.00 0.00 0.00 100
20260905081558 22 358 3.2 11.3 0.00 0.00 0.00 100
20260905081058 21 2 4.8 14.5 0.00 0.00 0.00 100
20260905080557 22 137 0.0 16.1 0.00 0.00 0.00 100
20260905080057 21 26 1.6 14.5 0.00 0.00 0.00 100
20260905075557 21 7 4.8 12.9 0.00 0.00 0.00 100
20260905075057 21 64 6.4 16.1 0.00 0.00 0.00 100
20260905074556 21 19 12.9 14.5 0.00 0.00 0.00 100
20260905074056 21 37 4.8 11.3 0.00 0.00 0.00 100
20260905073556 21 74 8.0 9.7 0.00 0.00 0.00 100
20260905073055 21 92 1.6 12.9 0.00 0.00 0.00 100
20260905072555 20 340 8.0 20.9 0.00 0.00 0.00 100
20260905072055 22 49 11.3 14.5 0.00 0.00 0.00 100
20260905071554 21 99 4.8 14.5 0.00 0.00 0.00 100
20260905071054 21 18 0.0 14.5 0.00 0.00 0.00 100
20260905070554 22 116 0.0 12.9 0.00 0.00 0.00 100
20260905070054 21 43 0.0 11.3 0.00 0.00 0.00 100
20260905065553 22 102 0.0 9.7 0.00 0.00 0.00 100
20260905065053 21 227 1.6 16.1 0.00 0.00 0.00 100
20260905064553 20 143 9.7 14.5 0.00 0.00 0.00 100
20260905064052 20 74 12.9 20.9 0.00 0.00 0.00 100
20260905063552 20 209 6.4 19.3 0.00 0.00 0.00 100
20260905063052 20 109 6.4 24.1 0.00 0.00 0.00 100
20260905062552 20 163 1.6 29.0 0.00 0.00 0.00 100
20260905062051 21 7 9.7 14.5 0.00 0.00 0.00 100
20260905061551 21 109 1.6 20.9 0.00 0.00 0.00 100
20260905061051 21 98 0.0 11.3 0.00 0.00 0.00 100
20260905060550 21 50 0.0 14.5 0.00 0.00 0.00 100
20260905060050 21 0 3.2 14.5 0.00 0.00 0.00 100
20260905055550 22 8 0.0 0.0 0.00 0.00 0.00 100
20260905055050 22 8 0.0 12.9 0.00 0.00 0.00 100
20260905054549 21 357 4.8 9.7 0.00 0.00 0.00 100
20260905054049 22 158 1.6 11.3 0.00 0.00 0.00 100
20260905053549 22 66 0.0 8.0 0.00 0.00 0.00 100
20260905053048 22 158 0.0 6.4 0.00 0.00 0.00 100
20260905052548 22 358 0.0 8.0 0.00 0.00 0.00 100
20260905052048 22 81 0.0 0.0 0.00 0.00 0.00 100
20260905051547 22 81 0.0 9.7 0.00 0.00 0.00 100
20260905051047 22 132 0.0 6.4 0.00 0.00 0.00 100
20260905050547 21 85 0.0 11.3 0.00 0.00 0.00 100
20260905050047 20 199 3.2 9.7 0.00 0.00 0.00 100
20260905045546 21 216 0.0 20.9 0.00 0.00 0.00 100
20260905045046 21 82 12.9 12.9 0.00 0.00 0.00 100
20260905044546 21 63 0.0 8.0 0.00 0.00 0.00 100
20260905044045 21 11 1.6 6.4 0.00 0.00 0.00 100
20260905043545 21 71 1.6 19.3 0.00 0.00 0.00 100
20260905043045 21 12 0.0 11.3 0.00 0.00 0.00 100
20260905042545 21 139 1.6 25.7 0.00 0.00 0.00 100
20260905042044 21 92 1.6 17.7 0.00 0.00 0.00 100
20260905041544 21 116 8.0 25.7 0.00 0.00 0.00 100
20260905041044 21 19 20.9 30.6 0.00 0.00 0.00 100
20260905040543 20 198 8.0 20.9 0.00 0.00 0.00 100
20260905040043 20 87 8.0 30.6 0.00 0.00 0.00 100
20260905035543 20 129 6.4 24.1 0.00 0.00 0.00 100
20260905035043 22 9 11.3 22.5 0.00 0.00 0.00 100
20260905034542 22 358 6.4 17.7 0.00 0.00 0.00 100
20260905034042 23 112 8.0 25.7 0.00 0.00 0.00 100
20260905033542 23 19 11.3 24.1 0.00 0.00 0.00 100
20260905033041 24 358 1.6 9.7 0.00 0.00 0.00 100
20260905032541 23 4 8.0 11.3 0.00 0.00 0.00 100
20260905032041 23 23 6.4 12.9 0.00 0.00 0.00 100
20260905031540 23 19 4.8 12.9 0.00 0.00 0.00 100
20260905031040 23 33 0.0 17.7 0.00 0.00 0.00 100
20260905030540 22 241 0.0 0.0 0.00 0.00 0.00 100
20260905030040 23 241 0.0 0.0 0.00 0.00 0.00 100
20260905025539 23 241 0.0 0.0 0.00 0.00 0.00 100
20260905025039 22 241 0.0 0.0 0.00 0.00 0.00 100
20260905024539 23 241 0.0 0.0 0.00 0.00 0.00 100
20260905024038 23 241 0.0 0.0 0.00 0.00 0.00 100
20260905023538 23 241 0.0 0.0 0.00 0.00 0.00 100
20260905023038 22 241 0.0 0.0 0.00 0.00 0.00 100
20260905022538 23 241 0.0 0.0 0.00 0.00 0.00 100
20260905022037 22 241 0.0 0.0 0.00 0.00 0.00 100
20260905021537 23 241 0.0 0.0 0.00 0.00 0.00 100
20260905021037 22 241 0.0 0.0 0.00 0.00 0.00 100
20260905020536 23 241 0.0 0.0 0.00 0.00 0.00 100
20260905020036 22 241 0.0 3.2 0.00 0.00 0.00 100
20260905015536 22 310 0.0 0.0 0.00 0.00 0.00 100
20260905015035 22 310 0.0 0.0 0.00 0.00 0.00 100
20260905014535 23 310 0.0 0.0 0.00 0.00 0.00 100
20260905014035 22 310 0.0 0.0 0.00 0.00 0.00 100
20260905013535 23 310 0.0 0.0 0.00 0.00 0.00 100
20260905013034 23 310 0.0 0.0 0.00 0.00 0.00 100
20260905012534 22 310 0.0 0.0 0.00 0.00 0.00 100
20260905012034 22 310 0.0 0.0 0.00 0.00 0.00 100
20260905011533 22 310 0.0 0.0 0.00 0.00 0.00 100
20260905011033 23 310 0.0 4.8 0.00 0.00 0.00 100
20260905010533 22 309 0.0 4.8 0.00 0.00 0.00 100
20260905010033 22 272 0.0 4.8 0.00 0.00 0.00 100
20260905005532 22 333 0.0 0.0 0.00 0.00 0.00 100
20260905005032 22 333 0.0 3.2 0.00 0.00 0.00 100
20260905004532 23 334 3.2 3.2 0.00 0.00 0.00 100
20260905004031 23 295 0.0 0.0 0.00 0.00 0.00 100
20260905003531 22 295 0.0 0.0 0.00 0.00 0.00 100
20260905003031 22 295 0.0 0.0 0.00 0.00 0.00 100
20260905002530 23 295 0.0 0.0 0.00 0.00 0.00 100
20260905002030 23 295 0.0 0.0 0.00 0.00 0.00 100
20260905001530 22 295 0.0 0.0 0.00 0.00 0.00 100
20260905001030 22 295 0.0 0.0 0.00 0.00 0.00 100
20260905000529 22 295 0.0 0.0 0.00 0.00 0.00 100
20260905000029 23 295 0.0 4.8 0.00 0.00 0.00 100
20260904235529 23 296 0.0 3.2 0.00 0.00 0.00 100
20260904235028 23 327 0.0 0.0 0.00 0.00 0.00 100
20260904234528 23 348 0.0 4.8 0.00 0.00 0.00 100
20260904234028 23 337 4.8 4.8 0.00 0.00 0.00 100
20260904233528 23 333 1.6 3.2 0.00 0.00 0.00 100
20260904233027 24 330 0.0 0.0 0.00 0.00 0.00 100
20260904232527 23 330 0.0 3.2 0.00 0.00 0.00 100
20260904232027 23 1 0.0 0.0 0.00 0.00 0.00 100
20260904231526 23 309 0.0 6.4 0.00 0.00 0.00 100
20260904231026 24 340 1.6 11.3 0.00 0.00 0.00 100
20260904230526 24 330 6.4 9.7 0.00 0.00 0.00 100
20260904230026 23 348 3.2 8.0 0.00 0.00 0.00 100
20260904225525 24 329 1.6 4.8 0.00 0.00 0.00 100
20260904225025 24 312 0.0 0.0 0.00 0.00 0.00 100
20260904224525 23 312 0.0 0.0 0.00 0.00 0.00 100